Regional Weather Roundup
Issued by NWS

Home | Current Version | Previous Version | Text Only | Print | Product List | Glossary On
Versions: 1 2 3 4 5 6 7 8 9 10 11 12 13 14 15 16 17 18 19 20 21 22 23 24 25 26 27 28 29 30 31 32 33 34 35 36 37 38 39 40 41 42 43 44 45 46 47 48 49 50
000
ASUS43 KDTX 260710
RWRMI
MICHIGAN HOURLY REGIONAL WEATHER ROUNDUP
NATIONAL WEATHER SERVICE DETROIT/PONTIAC MI
300 AM EDT SUN MAR 26 2017

NOTE: "FAIR" INDICATES FEW OR NO CLOUDS BELOW 12,000 FEET WITH NO
SIGNIFICANT WEATHER AND/OR OBSTRUCTION TO VISIBILITY.

MIZ047>049-052>055-059>063-066>070-074>076-081>083-260800-
SOUTHEAST LOWER MICHIGAN

CITY           SKY/WX    TMP DP  RH WIND       PRES   REMARKS
ADRIAN         CLOUDY    39  36  89 E12       30.07F WCI  32
ALMA           MIX PCPN  37  37  99 NE7       30.14S WCI  31
ANN ARBOR      CLOUDY    40  37  89 NE12      30.07F WCI  33
BAD AXE        CLOUDY    36  32  86 E7        30.15F WCI  30
CARO           CLOUDY    36  33  90 E5        30.13F WCI  32
DETROIT CITY   CLOUDY    39  36  89 E10       30.11F WCI  32
DETROIT        CLOUDY    40  36  86 E12       30.10F WCI  33
FLINT          CLOUDY    39  36  89 E8        30.10F WCI  33
GROSSE ILE     CLOUDY    38  35  87 E10G16    30.08F WCI  31
HILLSDALE      CLOUDY    37  36  93 E9        30.04F WCI  31
HOWELL         CLOUDY    40  37  88 E6        30.07F

CITY           SKY/WX    TMP DP  RH WIND       PRES   REMARKS
JACKSON        CLOUDY    41  37  86 E5        30.07S
LAMBERTVILLE   CLOUDY    38  35  89 E13G18    30.07F WCI  31
LANSING        CLOUDY    41  37  86 NE7       30.09F
LAPEER         FAIR      36  35  95 E6        30.11F WCI  31
MASON          CLOUDY    40  38  91 E5        30.08S
MONROE         CLOUDY    39  37  92 E9        30.08F WCI  33
MT. CLEMENS    CLOUDY    38  38  99 NE7       30.10F WCI  33
PONTIAC        CLOUDY    38  34  85 E9        30.08F WCI  31
PORT HOPE        N/A     35  33  92 E13       30.15F WCI  26
PORT HURON     CLOUDY    37  34  87 NE8       30.13F WCI  31
TRI CITIES     CLOUDY    37  36  96 NE9       30.14F WCI  30
MIDLAND        CLOUDY    37  35  92 NE7       30.14S WCI  31
TROY           CLOUDY    39  35  87 E7        30.13S WCI  34
SAGINAW HB     CLOUDY    37  34  87 NE9       30.12F WCI  31
$$
MIZ043>046-050>051-056>058-064>065-071>073-077>080-260800-
SOUTHWEST LOWER MICHIGAN

CITY           SKY/WX    TMP DP  RH WIND       PRES   REMARKS
BATTLE CREEK   LGT RAIN  43  41  93 E10       30.04F
BENTON HARBOR  CLOUDY    48  44  86 E13       29.97F
BIG RAPIDS     CLOUDY    36  34  92 E9        30.08S WCI  29
COLDWATER      CLOUDY    43  40  89 E10       30.03F
FREMONT        LGT RAIN  38  37  95 E12G20    30.03F WCI  31
HOLLAND        LGT RAIN  43  41  93 E12       30.01F
GRAND RAPIDS   LGT RAIN  41  32  70 E17       30.04F
IONIA          LGT RAIN  38  38  97 E10       30.07F WCI  31
KALAMAZOO      CLOUDY    44  40  85 E8        30.03F
LUDINGTON      DRIZZLE   38  38  97 E10       30.02F WCI  31
MARSHALL       CLOUDY    41  40  94 E8        30.05F
MOUNT PLEASANT MIX PCPN  36  34  94 E6        30.12F WCI  31
MUSKEGON       LGT RAIN  42  40  92 E15       30.02F
SOUTH HAVEN    LGT RAIN  46  45  97 E10       29.98F
$$
MIZ016>042-260800-
NORTHERN LOWER MICHIGAN

CITY           SKY/WX    TMP DP  RH WIND       PRES   REMARKS
ALPENA         LGT RAIN  34  32  92 E10G21    30.21F WCI  26
BEAVER ISLAND  MIX PCPN  32  31  96 E10       30.14F WCI  24
BELLAIRE       FLURRIES  36  32  86 CALM      30.11F
CADILLAC       LGT RAIN  35  34  96 E15G24    30.06F WCI  25
CHARLEVOIX     FLURRIES  34  33  98 E13       30.14F WCI  25
FRANKFORT      RAIN      38  35  89 E5        30.05F WCI  34
GAYLORD        LGT RAIN  34  29  82 E9G18     30.12F WCI  27
GRAYLING       LGT RAIN  32  32 100 E12       30.12F WCI  23
HARBOR SPRINGS LGT SNOW  32  31  98 E10       30.14F WCI  24
HOUGHTON LAKE  LGT RAIN  34  33  96 E10       30.12F WCI  26
MANISTEE       LGT RAIN  38  37  97 E8        30.04F WCI  32
OSCODA         LGT SNOW  36  34  93 NE13      30.19F WCI  27
PELLSTON       FRZ RAIN  32  28  85 E16G24    30.17F WCI  21
ROGERS CITY    MIX PCPN  33  31  91 E9          N/A  WCI  25
TRAVERSE CITY  LGT RAIN  38  34  85 E8G17     30.07F WCI  32
$$
MIZ007>008-015-260800-
EASTERN UPPER MICHIGAN

CITY           SKY/WX    TMP DP  RH WIND       PRES   REMARKS
KINROSS        MIX PCPN  29  24  82 E16G24    30.21F WCI  17
MACKINAC ISLAN CLOUDY    32  28  86 E21G33    30.17F WCI  19
NEWBERRY       MIX PCPN  30  29  97 E12G23    30.16F WCI  20
S. S. MARIE    MIX PCPN  32  21  64 E14G24    30.21F WCI  22
MUNISING         N/A     32  29  88 S9        30.14F WCI  24
$$
MIZ004>006-011>014-085-260800-
CENTRAL UPPER MICHIGAN

CITY           SKY/WX    TMP DP  RH WIND       PRES   REMARKS
ESCANABA       MIX PCPN  32  31  96 E10       30.13F WCI  24
MENOMINEE      LGT RAIN  33  32  96 E15       30.09F FOG     WCI  23
SAWYER-GWINN   MIX PCPN  30  29  95 SE9       30.11F WCI  22
$$
MIZ001>003-009>011-084-260800-
WESTERN UPPER MICHIGAN

CITY           SKY/WX    TMP DP  RH WIND       PRES   REMARKS
IRON MOUNTAIN  FRZ RAIN  32  29  88 SE8       30.08F WCI  25
HOUGHTON       CLOUDY    33  27  78 E15G23    30.09F WCI  23
COPPER HARBOR    N/A     35  25  66 S6        30.13F WCI  30
IRONWOOD       MIX PCPN  32  30  93 NE3       30.05F FOG
$$

ABBREVIATIONS USED IN REMARKS
   TC - TEMPERATURE IN CELSIUS
  WCI - WIND CHILL INDEX
   HX - HEAT INDEX
  VSB - VISIBILITY





USA.gov is the U.S. government's official web portal to all federal, state and local government web resources and services.